Location: Igri�s
(42.2144°N, 0.4320°W)
Time: 13:43:01
(UTC+00:00)

Cosmos 1570 Rocket - Pass Details

Date: 13 August 2020
Orbit: 762 x 789 km, 74.1° (Epoch: 24 September)

Event Time Altitude Azimuth Distance (km) Brightness Sun altitude
Rises 22:15:41 0° 335° (NNW) 3,274 8.5 -28.0°
Reaches altitude 10° 22:18:07 10° 331° (NNW) 2,346 7.5 -28.2°
Enters shadow 22:23:07 54° 264° (W) 949 4.5 -28.7°
